Driggs, ID

1:37 PM MDT on September 26, 2017 (GMT -0600)
Driggs

Weather History for KDIJ - October, 2012

Change the Weather History Date:

Friday, October 5, 2012

  Actual Average (KJAC) Record (KJAC)
Temperature  
Mean Temperature 32 °F -  
Max Temperature 46 °F 59 °F 75 °F (1980)
Min Temperature 18 °F 26 °F 12 °F (2001)
Degree Days  
Heating Degree Days 33    
Moisture  
Dew Point 12 °F    
Average Humidity 47    
Maximum Humidity 81    
Minimum Humidity 16    
Precipitation  
Precipitation 0.00 in - - ()
Sea Level Pressure  
Sea Level Pressure 30.19 in    
Wind  
Wind Speed 5 mph (WSW)    
Max Wind Speed 16 mph    
Max Gust Speed -    
Visibility 10 miles    
Events      
Averages and records for this station are not official NWS values.
T = Trace of Precipitation, MM = Missing Value Source: NWS Daily Summary

Daily Weather History Graph

Daily Weather History Graph

Search for Another Location

Airport or City:

Trip Planner

Search our weather history database for the weather conditions in past years. The results will help you decide how hot, cold, wet, or windy it might be!

Date:

Astronomy

Oct. 05, 2012 Rise Set
Actual Time 7:27 AM MDT 6:57 PM MDT
Civil Twilight 6:58 AM MDT 7:25 PM MDT
Nautical Twilight 6:25 AM MDT 7:59 PM MDT
Astronomical Twilight 5:51 AM MDT 8:32 PM MDT
Moon 10:14 PM MDT (10/5) 12:47 PM MDT (10/5)
Length of Visible Light 12h 27m
Length of Day
11h 29m
Waning Gibbous, 73% of the Moon is Illuminated
Oct 5
Waning Gibbous
Oct 8
Last Quarter
Oct 15
New
Oct 21
First Quarter
Oct 29
Full

Hourly Weather History & Observations

Time (MDT) Temp. Windchill Dew Point Humidity Pressure Visibility Wind Dir Wind Speed Gust Speed Precip Events Conditions
12:56 AM 30.0 °F 25.2 °F 18.1 °F 61% 30.09 in 10.0 mi SW 4.6 mph - N/A   Clear
1:56 AM 28.0 °F 24.2 °F 18.1 °F 66% 30.10 in 10.0 mi SW 3.5 mph - N/A   Clear
2:56 AM 23.0 °F 14.7 °F 16.2 °F 75% 30.13 in 10.0 mi South 6.9 mph - N/A   Clear
3:56 AM 24.1 °F - 16.2 °F 72% 30.13 in 10.0 mi Calm Calm - N/A   Clear
4:56 AM 24.1 °F 19.7 °F 16.2 °F 72% 30.14 in 10.0 mi West 3.5 mph - N/A   Clear
5:56 AM 24.1 °F 18.2 °F 15.1 °F 69% 30.17 in 10.0 mi West 4.6 mph - N/A   Clear
6:56 AM 18.1 °F 11.3 °F 13.1 °F 81% 30.22 in 10.0 mi South 4.6 mph - N/A   Clear
7:56 AM 18.1 °F 10.0 °F 12.0 °F 77% 30.24 in 10.0 mi SSE 5.8 mph - N/A   Clear
8:56 AM 28.0 °F - 17.1 °F 63% 30.21 in 10.0 mi Calm Calm - N/A   Clear
9:56 AM 32.0 °F - 16.2 °F 52% 30.22 in 10.0 mi Calm Calm - N/A   Clear
10:56 AM 37.9 °F 35.5 °F 17.1 °F 43% 30.23 in 10.0 mi Variable 3.5 mph - N/A   Clear
11:56 AM 38.8 °F 36.5 °F 11.1 °F 32% 30.20 in 10.0 mi SSW 3.5 mph - N/A   Clear
12:56 PM 43.0 °F 41.3 °F 9.1 °F 25% 30.19 in 10.0 mi NNW 3.5 mph - N/A   Clear
1:56 PM 45.9 °F 41.7 °F 8.1 °F 21% 30.17 in 10.0 mi WNW 8.1 mph - N/A   Clear
2:56 PM 46.9 °F - 9.1 °F 22% 30.17 in 10.0 mi NNW 8.1 mph - N/A   Clear
3:56 PM 46.9 °F - 7.2 °F 20% 30.16 in 10.0 mi NW 16.1 mph - N/A   Clear
4:56 PM 46.9 °F - 3.0 °F 16% 30.16 in 10.0 mi NW 10.4 mph - N/A   Clear
5:56 PM 45.9 °F 41.7 °F 3.0 °F 17% 30.17 in 10.0 mi WNW 8.1 mph - N/A   Clear
6:56 PM 39.9 °F 35.8 °F 8.1 °F 27% 30.22 in 10.0 mi West 5.8 mph - N/A   Clear
7:56 PM 34.0 °F 27.2 °F 7.2 °F 33% 30.26 in 10.0 mi NNW 8.1 mph - N/A   Clear
8:56 PM 31.1 °F - 8.1 °F 38% 30.24 in 10.0 mi Calm Calm - N/A   Clear
9:56 PM 27.1 °F - 11.1 °F 51% 30.25 in 10.0 mi Calm Calm - N/A   Scattered Clouds
10:56 PM 25.2 °F 17.3 °F 10.0 °F 53% 30.24 in 10.0 mi SSW 6.9 mph - N/A   Partly Cloudy
11:56 PM 27.1 °F 21.8 °F 12.0 °F 53% 30.25 in 10.0 mi ESE 4.6 mph - N/A   Overcast